Orbital Elements at Epoch 2459000.5 (2020-May-31.0) TDB
Reference: JPL 20 (heliocentric ecliptic J2000)
Element | Value | Uncertainty (1-sigma) | Units |
e | .159277746448176 | 4.772e-08 | |
a | 2.425493502500133 | 7.895e-09 | au |
q | 2.039166363397218 | 1.1559e-07 | au |
i | 6.587931447034752 | 5.5921e-06 | deg |
node | 6.580274169760255 | 2.864e-05 | deg |
peri | 341.1507282784356 | 3.1375e-05 | deg |
M | 346.452493699194 | 1.1452e-05 | deg |
tp | 2459052.422483992609 (2020-Jul-21.92248399) | 4.3908e-05 | TDB |
period | 1379.744273396426 3.78 | 6.7366e-06 1.844e-08 | d yr |
n | .2609179156901384 | 1.2739e-09 | deg/d |
Q | 2.811820641603048 | 9.1525e-09 | au |
|
| | Orbit Determination Parameters
Additional Information
|